CST,Max TemperatureF,Mean TemperatureF,Min TemperatureF,Max Dew PointF,MeanDew PointF,Min DewpointF,Max Humidity, Mean Humidity, Min Humidity, Max Sea Level PressureIn, Mean Sea Level PressureIn, Min Sea Level PressureIn, Max VisibilityMiles, Mean VisibilityMiles, Min VisibilityMiles, Max Wind SpeedMPH, Mean Wind SpeedMPH, Max Gust SpeedMPH,PrecipitationIn, CloudCover, Events, WindDirDegrees
2011-12-1,32,23,14,21,17,11,84,77,69,30.70,30.52,30.26,10,9,2,18,8,23,0.01,3,Snow,267
2011-12-2,43,32,20,30,21,14,82,67,51,30.21,29.92,29.73,10,10,10,18,11,25,0.00,1,,238
2011-12-3,30,18,6,25,15,6,84,71,57,30.19,30.12,30.00,10,10,6,25,10,33,T,5,Snow,302
2011-12-4,24,14,4,21,14,3,92,84,76,30.63,30.24,30.05,10,3,1,21,7,25,0.12,7,Snow,7
2011-12-5,12,3,-7,5,0,-9,91,79,66,30.69,30.59,30.43,10,10,6,13,5,17,T,4,Snow,266
2011-12-6,30,13,-4,22,7,-6,86,69,51,30.40,30.09,29.90,10,10,10,20,8,24,0.00,1,,216
2011-12-7,35,27,18,28,19,10,78,68,57,30.24,30.14,30.00,10,10,10,20,9,30,T,6,Snow,307
2011-12-8,19,10,1,6,-1,-8,74,63,51,30.34,30.29,30.17,10,10,10,24,12,30,0.00,0,,288
2011-12-9,21,9,-4,13,-1,-9,80,65,49,30.47,30.36,30.19,10,10,10,14,6,17,0.00,2,,249
2011-12-10,43,28,12,27,21,11,88,70,51,30.15,30.04,29.88,10,10,10,13,6,18,0.00,0,,225
2011-12-11,39,25,11,25,19,9,92,73,54,30.14,29.96,29.84,10,10,10,12,4,15,0.00,0,,343
2011-12-12,24,20,16,21,17,12,92,86,80,30.40,30.32,30.16,10,10,7,14,8,17,0.00,6,,50
2011-12-13,27,24,20,25,22,17,100,91,81,30.38,30.17,29.96,10,8,3,16,7,20,0.00,8,,156
2011-12-14,29,26,23,25,23,19,92,81,69,30.00,29.87,29.78,10,6,2,29,8,37,0.00,8,,272
2011-12-15,29,23,16,19,16,13,88,76,63,30.38,30.22,29.96,10,10,2,30,11,45,T,7,Snow,327
2011-12-16,27,20,12,20,17,10,100,88,75,30.38,30.31,30.22,10,6,1,9,3,10,0.05,5,Snow,125
2011-12-17,41,29,16,27,22,14,92,74,55,30.25,30.16,29.96,10,10,7,13,4,16,0.00,0,,227
2011-12-18,56,38,19,30,25,15,92,64,35,30.08,29.85,29.70,10,10,10,25,9,33,0.00,2,,302
2011-12-19,33,25,16,25,17,13,88,69,49,30.39,30.26,30.04,10,10,10,24,7,32,0.00,1,,300
2011-12-20,46,33,19,26,20,14,78,60,42,30.15,29.80,29.60,10,10,10,15,7,20,0.00,1,,234
2011-12-21,40,30,19,29,24,12,82,73,64,30.33,29.95,29.67,10,10,10,18,11,25,0.00,4,,330
2011-12-22,34,24,13,18,14,9,88,69,49,30.41,30.31,30.09,10,10,10,18,9,23,0.00,1,,264
2011-12-23,39,30,21,24,19,16,77,63,48,30.12,30.08,29.98,10,10,10,22,11,29,T,3,,283
2011-12-24,43,35,27,23,21,19,69,55,41,30.28,30.16,30.04,10,10,10,22,13,28,0.00,0,,281
2011-12-25,42,29,16,27,22,16,84,67,49,30.41,30.21,29.83,10,10,10,17,8,23,0.00,0,,217
2011-12-26,48,37,26,30,25,20,84,61,37,30.00,29.79,29.62,10,10,10,36,15,53,0.00,3,,290
2011-12-27,37,28,18,28,19,10,92,74,55,30.15,30.00,29.83,10,8,0,21,8,26,0.03,6,Fog-Snow,119
2011-12-28,46,31,16,34,26,17,92,77,62,29.84,29.70,29.52,10,10,10,15,5,18,0.01,2,,260
2011-12-29,41,34,27,34,29,25,100,88,76,29.69,29.56,29.44,10,9,4,20,8,25,0.04,7,Rain,153
2011-12-30,39,34,29,34,28,24,92,85,78,29.84,29.69,29.50,10,8,4,23,12,44,0.02,8,Rain-Snow,267
2011-12-31,40,35,29,31,27,13,92,74,56,30.20,29.72,29.45,10,7,2,30,11,38,0.19,4,Snow,325